SIA929 WARR-WSSS

Flight info

Callsign SIA929
Flight time N/A
Altitude 36000
Route RAMPY M635 SURGA T23 UGEBO UGEBO1A
Aircraft B738/M-SDE2E3FGHIRWXY/LB1

Departure

Time 2026-05-01 12:38
Airport Juanda International Airport (WARR)

Arrival

Time N/A
Airport Singapore Changi Airport (WSSS)
Time Latitude Longitude Altitude Speed Heading
2026-05-01 12:14 -7.38316 112.77750 14 ft 0 kts 189°
2026-05-01 12:30 -7.38296 112.77753 14 ft 2 kts 189°
2026-05-01 12:30 -7.38282 112.77756 14 ft 2 kts 189°
2026-05-01 12:30 -7.38267 112.77758 14 ft 2 kts 183°
2026-05-01 12:31 -7.38252 112.77755 14 ft 2 kts 158°
2026-05-01 12:31 -7.38239 112.77748 14 ft 2 kts 138°
2026-05-01 12:31 -7.38230 112.77737 14 ft 2 kts 120°
2026-05-01 12:31 -7.38222 112.77724 14 ft 2 kts 126°
2026-05-01 12:32 -7.38213 112.77711 14 ft 1 kts 125°
2026-05-01 12:32 -7.38211 112.77709 14 ft 0 kts 128°
2026-05-01 12:34 -7.38213 112.77711 14 ft 2 kts 128°
2026-05-01 12:34 -7.38232 112.77752 14 ft 10 kts 101°
2026-05-01 12:34 -7.38245 112.77844 14 ft 14 kts 97°
2026-05-01 12:34 -7.38225 112.77937 13 ft 15 kts 16°
2026-05-01 12:35 -7.38121 112.77956 11 ft 15 kts
2026-05-01 12:35 -7.38052 112.77909 11 ft 13 kts 284°
2026-05-01 12:35 -7.38033 112.77802 11 ft 18 kts 279°
2026-05-01 12:35 -7.38008 112.77651 11 ft 24 kts 279°
2026-05-01 12:36 -7.37979 112.77473 11 ft 27 kts 279°
2026-05-01 12:36 -7.37938 112.77290 11 ft 16 kts 318°
2026-05-01 12:36 -7.37837 112.77320 11 ft 17 kts 42°
2026-05-01 12:36 -7.37775 112.77407 11 ft 13 kts 102°
2026-05-01 12:37 -7.37790 112.77496 11 ft 12 kts 99°
2026-05-01 12:37 -7.37815 112.77647 11 ft 50 kts 99°
2026-05-01 12:37 -7.37917 112.78271 11 ft 128 kts 99°
2026-05-01 12:37 -7.38098 112.79385 117 ft 183 kts 99°
2026-05-01 12:38 -7.38332 112.80730 623 ft 213 kts 99°
2026-05-01 12:38 -7.38590 112.82243 1652 ft 220 kts 98°
2026-05-01 12:38 -7.38825 112.83763 2426 ft 231 kts 97°
2026-05-01 12:38 -7.39066 112.85425 3104 ft 246 kts 98°
2026-05-01 12:39 -7.39332 112.87164 3795 ft 260 kts 99°
2026-05-01 12:39 -7.39621 112.88966 4699 ft 264 kts 99°
2026-05-01 12:39 -7.39883 112.90809 5601 ft 268 kts 95°
2026-05-01 12:39 -7.39726 112.92673 6477 ft 274 kts 73°
2026-05-01 12:40 -7.38835 112.94370 7306 ft 281 kts 55°
2026-05-01 12:40 -7.37374 112.95702 8105 ft 289 kts 31°
2026-05-01 12:40 -7.35511 112.96467 8942 ft 293 kts 19°
2026-05-01 12:40 -7.33552 112.97052 9740 ft 296 kts 17°
2026-05-01 12:41 -7.31544 112.97646 10486 ft 302 kts 18°
2026-05-01 12:41 -7.29491 112.98304 10949 ft 317 kts 20°
2026-05-01 12:41 -7.27328 112.99040 11410 ft 332 kts 20°
2026-05-01 12:41 -7.25088 112.99822 11833 ft 347 kts 20°
2026-05-01 12:42 -7.22760 113.00638 12306 ft 359 kts 20°
2026-05-01 12:42 -7.20368 113.01474 13018 ft 363 kts 20°
2026-05-01 12:42 -7.17986 113.02304 13750 ft 366 kts 20°
2026-05-01 12:42 -7.15561 113.03148 14415 ft 370 kts 20°
2026-05-01 12:43 -7.13089 113.04009 15108 ft 372 kts 20°
2026-05-01 12:43 -7.10640 113.04860 15718 ft 376 kts 20°
2026-05-01 12:43 -7.08124 113.05735 16345 ft 378 kts 20°
2026-05-01 12:43 -7.05622 113.06605 16938 ft 381 kts 20°
2026-05-01 12:44 -7.03111 113.07478 17582 ft 383 kts 20°
2026-05-01 12:44 -7.00558 113.08366 18079 ft 388 kts 20°
2026-05-01 12:44 -6.95387 113.10165 19156 ft 394 kts 20°
2026-05-01 12:45 -6.90150 113.11984 20204 ft 400 kts 20°
2026-05-01 12:45 -6.87531 113.12893 20731 ft 401 kts 20°
2026-05-01 12:45 -6.84861 113.13820 21180 ft 406 kts 20°
2026-05-01 12:46 -6.82184 113.14750 21669 ft 408 kts 20°
2026-05-01 12:46 -6.79478 113.15690 22081 ft 412 kts 20°
2026-05-01 12:46 -6.76754 113.16637 22527 ft 416 kts 20°
2026-05-01 12:46 -6.74001 113.17593 22935 ft 420 kts 20°
2026-05-01 12:47 -6.71223 113.18557 23400 ft 422 kts 20°
2026-05-01 12:47 -6.68421 113.19530 23833 ft 425 kts 20°
2026-05-01 12:47 -6.65628 113.20500 24258 ft 428 kts 20°
2026-05-01 12:47 -6.62787 113.21486 24680 ft 431 kts 20°
2026-05-01 12:48 -6.59938 113.22475 25119 ft 434 kts 20°
2026-05-01 12:48 -6.57055 113.23476 25489 ft 438 kts 20°
2026-05-01 12:48 -6.54177 113.24477 25918 ft 439 kts 20°
2026-05-01 12:48 -6.51307 113.25530 26287 ft 443 kts 21°
2026-05-01 12:49 -6.48370 113.26579 26693 ft 445 kts 20°
2026-05-01 12:49 -6.45433 113.27595 27092 ft 447 kts 20°
2026-05-01 12:49 -6.42452 113.28613 27421 ft 451 kts 20°
2026-05-01 12:49 -6.39494 113.29620 27802 ft 453 kts 19°
2026-05-01 12:50 -6.36415 113.30481 28161 ft 457 kts 13°
2026-05-01 12:50 -6.33236 113.30924 28544 ft 460 kts
2026-05-01 12:50 -6.30041 113.30854 28885 ft 464 kts 355°
2026-05-01 12:50 -6.26814 113.30256 29206 ft 469 kts 346°
2026-05-01 12:51 -6.23739 113.29152 29551 ft 473 kts 337°
2026-05-01 12:51 -6.20856 113.27566 29867 ft 477 kts 328°
2026-05-01 12:51 -6.15793 113.23234 30774 ft 477 kts 314°
2026-05-01 12:52 -6.13617 113.20703 31308 ft 475 kts 309°
2026-05-01 12:52 -6.09693 113.15412 32153 ft 474 kts 307°
2026-05-01 12:52 -6.07766 113.12710 32594 ft 473 kts 307°
2026-05-01 12:53 -6.03902 113.07375 33677 ft 468 kts 308°
2026-05-01 12:53 -6.01964 113.04762 34162 ft 466 kts 308°
2026-05-01 12:53 -6.00021 113.02181 34652 ft 464 kts 308°
2026-05-01 12:54 -5.98072 112.99615 35153 ft 462 kts 309°
2026-05-01 12:54 -5.94151 112.94492 35856 ft 462 kts 309°
2026-05-01 12:54 -5.92184 112.91933 35863 ft 464 kts 309°
2026-05-01 12:55 -5.86291 112.84277 35864 ft 460 kts 309°
2026-05-01 12:56 -5.82341 112.79150 35864 ft 461 kts 309°
2026-05-01 12:56 -5.78362 112.73984 35864 ft 470 kts 309°
2026-05-01 12:57 -5.74314 112.68732 35863 ft 476 kts 309°
2026-05-01 12:57 -5.68243 112.60847 35864 ft 473 kts 309°
2026-05-01 12:58 -5.64217 112.55620 35864 ft 474 kts 309°
2026-05-01 12:59 -5.58182 112.47790 35864 ft 474 kts 309°
2026-05-01 12:59 -5.52084 112.39883 35864 ft 474 kts 309°
2026-05-01 13:00 -5.46040 112.32050 35863 ft 475 kts 308°
2026-05-01 13:01 -5.39966 112.24178 35863 ft 475 kts 309°
2026-05-01 13:02 -5.33894 112.16315 35863 ft 475 kts 309°
2026-05-01 13:07 -4.89212 111.58525 35865 ft 477 kts 308°
2026-05-01 13:08 -4.85132 111.53256 35869 ft 477 kts 308°
2026-05-01 13:08 -4.81062 111.48000 35878 ft 477 kts 308°
2026-05-01 13:09 -4.76984 111.42735 35884 ft 477 kts 308°
2026-05-01 13:09 -4.72928 111.37499 35884 ft 476 kts 308°
2026-05-01 13:10 -4.68864 111.32254 35880 ft 477 kts 308°
2026-05-01 13:10 -4.64785 111.26993 35870 ft 477 kts 309°
2026-05-01 13:11 -4.60700 111.21723 35864 ft 476 kts 309°
2026-05-01 13:11 -4.56650 111.16475 35864 ft 476 kts 308°
2026-05-01 13:12 -4.52621 111.11237 35864 ft 476 kts 308°
2026-05-01 13:12 -4.48580 111.05987 35864 ft 476 kts 308°
2026-05-01 13:13 -4.44524 111.00719 35863 ft 476 kts 308°
2026-05-01 13:13 -4.40506 110.95503 35864 ft 476 kts 308°
2026-05-01 13:14 -4.36443 110.90233 35863 ft 476 kts 309°
2026-05-01 13:14 -4.32403 110.84993 35865 ft 476 kts 309°
2026-05-01 13:15 -4.28356 110.79747 35863 ft 475 kts 308°
2026-05-01 13:15 -4.24317 110.74511 35864 ft 475 kts 308°
2026-05-01 13:16 -4.20280 110.69278 35864 ft 474 kts 308°
2026-05-01 13:16 -4.16228 110.64028 35864 ft 474 kts 308°
2026-05-01 13:17 -4.08147 110.53558 35864 ft 474 kts 309°
2026-05-01 13:18 -4.02060 110.45675 35864 ft 473 kts 309°
2026-05-01 13:18 -3.98023 110.40448 35864 ft 473 kts 309°
2026-05-01 13:19 -3.93946 110.35290 35862 ft 473 kts 310°
2026-05-01 13:20 -3.87493 110.27799 35864 ft 473 kts 312°
2026-05-01 13:20 -3.83127 110.22796 35863 ft 473 kts 312°
2026-05-01 13:21 -3.76643 110.15306 35866 ft 473 kts 312°
2026-05-01 13:21 -3.72340 110.10307 35864 ft 473 kts 312°
2026-05-01 13:22 -3.68031 110.05293 35863 ft 473 kts 312°
2026-05-01 13:22 -3.63714 110.00269 35864 ft 471 kts 312°
2026-05-01 13:23 -3.59413 109.95261 35867 ft 473 kts 312°
2026-05-01 13:23 -3.55100 109.90241 35872 ft 473 kts 312°
2026-05-01 13:24 -3.50804 109.85239 35877 ft 473 kts 311°
2026-05-01 13:25 -3.44352 109.77729 35882 ft 473 kts 311°
2026-05-01 13:25 -3.40041 109.72712 35883 ft 473 kts 312°
2026-05-01 13:26 -3.35761 109.67734 35885 ft 474 kts 311°
2026-05-01 13:26 -3.31460 109.62732 35883 ft 474 kts 311°
2026-05-01 13:27 -3.27123 109.57688 35883 ft 474 kts 311°
2026-05-01 13:27 -3.20662 109.50176 35883 ft 474 kts 311°
2026-05-01 13:28 -3.14221 109.42689 35882 ft 475 kts 311°
2026-05-01 13:29 -3.05594 109.32663 35875 ft 475 kts 311°
2026-05-01 13:31 -2.92641 109.17615 35875 ft 474 kts 311°
2026-05-01 13:32 -2.81854 109.05112 35863 ft 475 kts 312°
2026-05-01 13:33 -2.71020 108.92589 35864 ft 475 kts 312°
2026-05-01 13:34 -2.62322 108.82533 35864 ft 476 kts 312°
2026-05-01 13:35 -2.55797 108.74990 35864 ft 476 kts 312°
2026-05-01 13:36 -2.49303 108.67484 35864 ft 476 kts 312°
2026-05-01 13:36 -2.42816 108.59971 35864 ft 476 kts 312°
2026-05-01 13:37 -2.39192 108.55765 35865 ft 476 kts 312°
2026-05-01 13:37 -2.34148 108.49914 35867 ft 477 kts 312°
2026-05-01 13:38 -2.27657 108.42384 35881 ft 475 kts 312°
2026-05-01 13:39 -2.23324 108.37360 35884 ft 476 kts 312°
2026-05-01 13:39 -2.19012 108.32362 35884 ft 477 kts 312°
2026-05-01 13:40 -2.14687 108.27348 35884 ft 477 kts 312°
2026-05-01 13:40 -2.10333 108.22303 35884 ft 477 kts 312°
2026-05-01 13:41 -2.05993 108.17274 35884 ft 477 kts 312°
2026-05-01 13:41 -2.01656 108.12246 35884 ft 476 kts 312°
2026-05-01 13:42 -1.97327 108.07224 35884 ft 477 kts 312°
2026-05-01 13:42 -1.93009 108.02217 35884 ft 477 kts 312°
2026-05-01 13:43 -1.88637 107.97148 35884 ft 478 kts 312°
2026-05-01 13:43 -1.84295 107.92113 35884 ft 477 kts 312°
2026-05-01 13:44 -1.79952 107.87076 35884 ft 477 kts 312°
2026-05-01 13:44 -1.75633 107.82069 35884 ft 476 kts 312°
2026-05-01 13:45 -1.71315 107.77065 35884 ft 477 kts 312°
2026-05-01 13:45 -1.66981 107.72041 35884 ft 476 kts 312°
2026-05-01 13:46 -1.62640 107.67011 35884 ft 477 kts 312°
2026-05-01 13:46 -1.58307 107.61988 35884 ft 476 kts 312°
2026-05-01 13:47 -1.53992 107.56987 35884 ft 476 kts 312°
2026-05-01 13:47 -1.49661 107.51968 35884 ft 476 kts 312°
2026-05-01 13:48 -1.45327 107.46948 35880 ft 477 kts 312°
2026-05-01 13:48 -1.40983 107.41916 35874 ft 477 kts 312°
2026-05-01 13:49 -1.36661 107.36910 35869 ft 476 kts 312°
2026-05-01 13:49 -1.32304 107.31934 35865 ft 476 kts 313°
2026-05-01 13:50 -1.27906 107.26989 35864 ft 476 kts 313°
2026-05-01 13:50 -1.23487 107.22028 35864 ft 476 kts 313°
2026-05-01 13:51 -1.19098 107.17094 35864 ft 476 kts 313°
2026-05-01 13:51 -1.14709 107.12152 35864 ft 477 kts 313°
2026-05-01 13:52 -1.10284 107.07164 35864 ft 477 kts 313°
2026-05-01 13:52 -1.05898 107.02217 35864 ft 476 kts 313°
2026-05-01 13:53 -1.01479 106.97234 35864 ft 476 kts 313°
2026-05-01 13:53 -0.94882 106.89798 35867 ft 476 kts 313°
2026-05-01 13:54 -0.90518 106.84879 35876 ft 476 kts 313°
2026-05-01 13:54 -0.86094 106.79892 35884 ft 477 kts 313°
2026-05-01 13:55 -0.81702 106.74938 35884 ft 476 kts 313°
2026-05-01 13:55 -0.77316 106.69994 35884 ft 476 kts 313°
2026-05-01 13:56 -0.72902 106.65019 35884 ft 476 kts 313°
2026-05-01 13:56 -0.68504 106.60062 35884 ft 476 kts 313°
2026-05-01 13:57 -0.64858 106.55952 35884 ft 476 kts 313°
2026-05-01 13:57 -0.59584 106.50274 35884 ft 475 kts 317°
2026-05-01 13:58 -0.54697 106.45834 35884 ft 474 kts 320°
2026-05-01 13:58 -0.49684 106.41496 35884 ft 474 kts 320°
2026-05-01 13:59 -0.44677 106.37148 35884 ft 475 kts 320°
2026-05-01 13:59 -0.39737 106.32812 35884 ft 474 kts 320°
2026-05-01 14:00 -0.34776 106.28428 35884 ft 474 kts 320°
2026-05-01 14:00 -0.29858 106.24065 35884 ft 474 kts 320°
2026-05-01 14:01 -0.24923 106.19683 35884 ft 474 kts 319°
2026-05-01 14:01 -0.19956 106.15269 35884 ft 474 kts 319°
2026-05-01 14:02 -0.15023 106.10886 35884 ft 474 kts 319°
2026-05-01 14:02 -0.10107 106.06518 35884 ft 474 kts 319°
2026-05-01 14:03 -0.05183 106.02144 35884 ft 473 kts 319°
2026-05-01 14:03 -0.00252 105.97763 35884 ft 473 kts 319°
2026-05-01 14:04 0.04657 105.93402 35884 ft 474 kts 319°
2026-05-01 14:04 0.08814 105.89709 35884 ft 475 kts 319°
2026-05-01 14:05 0.14577 105.84588 35884 ft 474 kts 319°
2026-05-01 14:05 0.19536 105.80180 35884 ft 474 kts 319°
2026-05-01 14:06 0.23672 105.76506 35883 ft 474 kts 319°
2026-05-01 14:06 0.29439 105.71384 35878 ft 474 kts 319°
2026-05-01 14:07 0.34393 105.66981 35872 ft 474 kts 319°
2026-05-01 14:08 0.41747 105.60448 35272 ft 460 kts 319°
2026-05-01 14:08 0.44147 105.58313 34979 ft 457 kts 319°
2026-05-01 14:08 0.46509 105.56213 34693 ft 460 kts 319°
2026-05-01 14:08 0.48948 105.54048 34399 ft 463 kts 319°
2026-05-01 14:09 0.51349 105.51917 34111 ft 465 kts 320°
2026-05-01 14:09 0.53788 105.49749 33820 ft 465 kts 319°
2026-05-01 14:09 0.56216 105.47593 33531 ft 464 kts 319°
2026-05-01 14:09 0.58629 105.45448 33244 ft 465 kts 319°
2026-05-01 14:10 0.61068 105.43297 32792 ft 465 kts 320°
2026-05-01 14:10 0.63556 105.41222 32005 ft 466 kts 324°
2026-05-01 14:10 0.66205 105.39374 31401 ft 459 kts 328°
2026-05-01 14:10 0.68918 105.37729 30828 ft 449 kts 331°
2026-05-01 14:11 0.71608 105.36213 30244 ft 440 kts 332°
2026-05-01 14:11 0.76892 105.33344 29098 ft 424 kts 333°
2026-05-01 14:11 0.79450 105.31958 28540 ft 419 kts 333°
2026-05-01 14:12 0.82016 105.30558 27977 ft 418 kts 333°
2026-05-01 14:12 0.84540 105.29170 27422 ft 416 kts 333°
2026-05-01 14:12 0.87075 105.27768 26851 ft 415 kts 333°
2026-05-01 14:12 0.89605 105.26362 26277 ft 414 kts 333°
2026-05-01 14:13 0.92123 105.24957 25713 ft 413 kts 333°
2026-05-01 14:13 0.93788 105.24026 25332 ft 413 kts 333°
2026-05-01 14:13 0.97136 105.22152 24572 ft 411 kts 333°
2026-05-01 14:13 0.99625 105.20757 24000 ft 411 kts 333°
2026-05-01 14:14 1.02118 105.19357 23431 ft 410 kts 333°
2026-05-01 14:14 1.04628 105.17948 22856 ft 409 kts 334°
2026-05-01 14:14 1.07105 105.16558 22283 ft 409 kts 334°
2026-05-01 14:14 1.09590 105.15163 21718 ft 408 kts 333°
2026-05-01 14:15 1.12016 105.13720 21137 ft 409 kts 328°
2026-05-01 14:15 1.14166 105.11913 20685 ft 403 kts 315°
2026-05-01 14:15 1.15789 105.09657 20492 ft 388 kts 300°
2026-05-01 14:15 1.16910 105.07233 20259 ft 382 kts 292°
2026-05-01 14:16 1.17633 105.04686 19701 ft 386 kts 280°
2026-05-01 14:16 1.17829 105.02023 19203 ft 385 kts 271°
2026-05-01 14:16 1.17801 104.99352 18945 ft 377 kts 269°
2026-05-01 14:16 1.17704 104.96756 18710 ft 371 kts 268°
2026-05-01 14:17 1.17589 104.94199 18479 ft 371 kts 268°
2026-05-01 14:17 1.17481 104.91599 18246 ft 371 kts 269°
2026-05-01 14:17 1.17394 104.89040 18013 ft 370 kts 269°
2026-05-01 14:17 1.17323 104.86483 17779 ft 368 kts 269°
2026-05-01 14:18 1.17283 104.84789 17623 ft 366 kts 269°
2026-05-01 14:18 1.17209 104.81411 17354 ft 365 kts 270°
2026-05-01 14:18 1.17154 104.78874 17039 ft 359 kts 269°
2026-05-01 14:18 1.17116 104.77238 16750 ft 355 kts 269°
2026-05-01 14:19 1.17034 104.74010 16215 ft 345 kts 269°
2026-05-01 14:19 1.16972 104.71628 15825 ft 339 kts 269°
2026-05-01 14:19 1.16912 104.69296 15451 ft 332 kts 269°
2026-05-01 14:19 1.16853 104.67014 15080 ft 325 kts 269°
2026-05-01 14:20 1.16796 104.64765 14708 ft 319 kts 269°
2026-05-01 14:20 1.16687 104.60438 14003 ft 308 kts 269°
2026-05-01 14:20 1.16633 104.58315 13662 ft 306 kts 269°
2026-05-01 14:21 1.16598 104.56886 13427 ft 305 kts 269°
2026-05-01 14:21 1.16528 104.54076 12974 ft 303 kts 269°
2026-05-01 14:21 1.16492 104.52657 12744 ft 303 kts 269°
2026-05-01 14:22 1.16369 104.47815 12037 ft 297 kts 268°
2026-05-01 14:22 1.16317 104.45737 11699 ft 295 kts 268°
2026-05-01 14:22 1.16265 104.43695 11370 ft 294 kts 268°
2026-05-01 14:22 1.16214 104.41672 11048 ft 292 kts 268°
2026-05-01 14:23 1.16179 104.40305 10828 ft 291 kts 268°
2026-05-01 14:23 1.16037 104.37626 10385 ft 290 kts 265°
2026-05-01 14:23 1.15860 104.35637 10058 ft 288 kts 264°
2026-05-01 14:23 1.15735 104.34320 9840 ft 287 kts 264°
2026-05-01 14:24 1.15492 104.31678 9414 ft 278 kts 264°
2026-05-01 14:24 1.15380 104.30395 9210 ft 274 kts 264°
2026-05-01 14:24 1.15221 104.28517 8903 ft 268 kts 264°
2026-05-01 14:24 1.15015 104.26055 8504 ft 267 kts 264°
2026-05-01 14:25 1.14912 104.24828 8304 ft 266 kts 265°
2026-05-01 14:25 1.14707 104.22385 7900 ft 264 kts 264°
2026-05-01 14:25 1.14560 104.20570 7600 ft 263 kts 265°
2026-05-01 14:25 1.14426 104.18726 7305 ft 262 kts 265°
2026-05-01 14:26 1.14302 104.16924 7010 ft 261 kts 265°
2026-05-01 14:26 1.14044 104.13283 6397 ft 259 kts 265°
2026-05-01 14:26 1.13918 104.11520 6117 ft 253 kts 265°
2026-05-01 14:27 1.13793 104.09776 5842 ft 248 kts 265°
2026-05-01 14:27 1.13711 104.08641 5659 ft 247 kts 265°
2026-05-01 14:27 1.13547 104.06352 5269 ft 244 kts 265°
2026-05-01 14:28 1.13750 104.03084 4882 ft 230 kts 301°
2026-05-01 14:28 1.14390 104.02252 4832 ft 219 kts 315°
2026-05-01 14:28 1.15834 104.00860 4505 ft 218 kts 317°
2026-05-01 14:28 1.16911 103.99754 4141 ft 220 kts 314°
2026-05-01 14:29 1.17939 103.98640 3845 ft 219 kts 313°
2026-05-01 14:29 1.18967 103.97506 3555 ft 217 kts 314°
2026-05-01 14:30 1.22012 103.94199 2689 ft 212 kts 317°
2026-05-01 14:30 1.22778 103.93591 2520 ft 208 kts 333°
2026-05-01 14:30 1.24527 103.93407 2461 ft 180 kts 18°
2026-05-01 14:31 1.26728 103.94309 2271 ft 176 kts 25°
2026-05-01 14:31 1.27870 103.94788 2053 ft 181 kts 25°
2026-05-01 14:31 1.29059 103.95258 1851 ft 184 kts 24°
2026-05-01 14:31 1.30238 103.95733 1720 ft 180 kts 25°
2026-05-01 14:32 1.31010 103.96055 1727 ft 175 kts 25°
2026-05-01 14:32 1.31980 103.96474 2731 ft 131 kts 27°
2026-05-01 14:32 1.32930 103.96903 3101 ft 139 kts 27°
2026-05-01 14:32 1.33855 103.97329 2517 ft 162 kts 27°
2026-05-01 14:33 1.34936 103.97828 1863 ft 174 kts 26°
2026-05-01 14:33 1.35641 103.98152 1808 ft 159 kts 27°
2026-05-01 14:33 1.36570 103.98583 2425 ft 134 kts 28°
2026-05-01 14:33 1.37511 103.98823 2782 ft 155 kts 334°
2026-05-01 14:34 1.38468 103.98114 3081 ft 165 kts 324°
2026-05-01 14:34 1.39257 103.97518 3740 ft 163 kts 326°
2026-05-01 14:34 1.40331 103.96721 3592 ft 212 kts 325°
2026-05-01 14:34 1.41620 103.95798 2852 ft 227 kts 328°